Location: Unspecified
(0.0000°N, 0.0000°E)
Time: 05:13:59
(UTC+00:00)

Transit 2A - Pass Details

Date: 06 October 2020
Orbit: 593 x 966 km, 66.7° (Epoch: 28 October)

Event Time Altitude Azimuth Distance (km) Brightness Sun altitude
Rises 05:16:44 0° 213° (SSW) 3,312 9.0 -7.8°
Reaches altitude 10° 05:19:10 10° 220° (SW) 2,436 8.3 -7.2°
Maximum altitude 05:24:32 44° 291° (WNW) 1,211 6.6 -5.9°
Drops below altitude 10° 05:30:20 10° 1° (N) 2,629 8.7 -4.4°
Sets 05:33:04 0° 8° (N) 3,601 9.5 -3.7°
